Location: Banff
(51.1667°N, 115.5667°W)
Time: 09:33:44
(UTC+00:00)

Envisat - Pass Details

Date: 27 November 2022
Orbit: 763 x 765 km, 98.2° (Epoch: 28 January)

Event Time Altitude Azimuth Distance (km) Brightness Sun altitude
Rises 11:23:47 0° 20° (NNE) 3,247 6.6 -35.9°
Reaches altitude 10° 11:26:15 10° 28° (NNE) 2,316 5.8 -35.6°
Enters shadow 11:29:42 33° 63° (ENE) 1,286 4.5 -35.0°
